Fecha, hora, temperatura, viento dirección y velocidad, humedad y presión.

  • 16-01-2019 17:00:00 | 2.80°C | Noroeste |5.00 km/h | 70.00% | 0.00 hPa
  • 16-01-2019 16:00:00 | 4.30°C | Noroeste |6.00 km/h | 59.00% | 0.00 hPa
  • 16-01-2019 15:00:00 | 4.60°C | Norte |3.00 km/h | 56.00% | 0.00 hPa
  • 16-01-2019 14:00:00 | 4.50°C | Nordeste |4.00 km/h | 51.00% | 0.00 hPa
  • 16-01-2019 13:00:00 | 5.40°C | Noroeste |6.00 km/h | 41.00% | 0.00 hPa
  • 16-01-2019 12:00:00 | 6.30°C | Sur |12.00 km/h | 40.00% | 0.00 hPa
  • 16-01-2019 11:00:00 | 5.80°C | Sudoeste |5.00 km/h | 40.00% | 0.00 hPa
  • 16-01-2019 10:00:00 | 3.50°C | Sur |12.00 km/h | 43.00% | 0.00 hPa
  • 16-01-2019 09:00:00 | 3.10°C | Sur |15.00 km/h | 42.00% | 0.00 hPa
  • 16-01-2019 08:00:00 | 4.40°C | Sur |13.00 km/h | 39.00% | 0.00 hPa
  • 16-01-2019 07:00:00 | 4.00°C | Sur |14.00 km/h | 39.00% | 0.00 hPa
  • 16-01-2019 06:00:00 | 4.50°C | Sur |12.00 km/h | 36.00% | 0.00 hPa
  • 16-01-2019 05:00:00 | 4.10°C | Sur |14.00 km/h | 33.00% | 0.00 hPa
  • 16-01-2019 04:00:00 | 5.00°C | Sur |15.00 km/h | 32.00% | 0.00 hPa
  • 16-01-2019 03:00:00 | 4.40°C | Sur |14.00 km/h | 32.00% | 0.00 hPa
  • 16-01-2019 02:00:00 | 4.60°C | Sur |17.00 km/h | 31.00% | 0.00 hPa
  • 16-01-2019 01:00:00 | 4.80°C | Sur |14.00 km/h | 30.00% | 0.00 hPa
  • 16-01-2019 00:00:00 | 4.60°C | Sur |11.00 km/h | 27.00% | 0.00 hPa
  • 15-01-2019 23:00:00 | 5.60°C | Sur |13.00 km/h | 29.00% | 0.00 hPa
  • 15-01-2019 22:00:00 | 5.60°C | Sur |17.00 km/h | 29.00% | 0.00 hPa
  • 15-01-2019 21:00:00 | 5.90°C | Sur |17.00 km/h | 29.00% | 0.00 hPa
  • 15-01-2019 20:00:00 | 5.50°C | Sudoeste |10.00 km/h | 27.00% | 0.00 hPa
  • 15-01-2019 19:00:00 | 6.50°C | Sur |14.00 km/h | 27.00% | 0.00 hPa
  • 15-01-2019 18:00:00 | 7.00°C | Sur |14.00 km/h | 27.00% | 0.00 hPa
    • diseño web asturias Información sobre el estado de las mareas, altura de la marejada, temperatura del agua y otros datos de Gijón en Asturias.

      Surf Gijón